Hourly Data Report for October 01, 2015

All times are specified in Local Standard Time (LST). Add 1 hour to adjust for Daylight Saving Time where and when it is observed.

KAMLOOPS A
BRITISH COLUMBIA

50°42'09.000" N
120°26'55.000" W
345.30 m
1163781
71887
YKA

Download Data

Hourly Data (October 2015)
Hourly Data Report for October 1, 2015
Temp Definition
°C
Dew Point Temp Definition
°C
Rel Hum Definition
%
Wind Dir Definition
10's deg

Wind Spd Definition
km/h
Visibility Definition
km
Stn Press Definition
kPa
Hmdx Definition


Wind Chill Definition


Weather Definition


TIME
00:00 Legend Double Dagger 10.1 6.1 76 36 1 64.4 97.59     LegendNANA
01:00 Legend Double Dagger 8.0 4.6 79   0 64.4 97.62     Clear
02:00 Legend Double Dagger 6.8 4.6 86 36 1 64.4 97.66     LegendNANA
03:00 Legend Double Dagger 6.6 4.1 84 36 1 64.4 97.68     LegendNANA
04:00 Legend Double Dagger 5.5 3.8 89 36 2 64.4 97.72     Clear
05:00 Legend Double Dagger 6.2 5.0 92 0 1 64.4 97.79     LegendNANA
06:00 Legend Double Dagger 4.9 3.6 91 9 3 64.4 97.84     LegendNANA
07:00 Legend Double Dagger 6.0 4.0 87 4 3 64.4 97.88     Clear
08:00 Legend Double Dagger 9.0 4.8 75 36 3 64.4 97.90     LegendNANA
09:00 Legend Double Dagger 11.2 5.6 68 36 2 64.4 97.88     LegendNANA
10:00 Legend Double Dagger 13.2 5.2 58 27 6 64.4 97.83     Clear
11:00 Legend Double Dagger 14.9 4.9 51 23 6 64.4 97.75     LegendNANA
12:00 Legend Double Dagger 17.2 6.2 48 28 5 64.4 97.67     LegendNANA
13:00 Legend Double Dagger 19.0 5.9 42 21 7 64.4 97.59     Clear
14:00 Legend Double Dagger 20.6 6.3 39 25 5 64.4 97.51     LegendNANA
15:00 Legend Double Dagger 21.4 6.3 37 20 4 64.4 97.45     LegendNANA
16:00 Legend Double Dagger 21.2 6.9 39 23 5 64.4 97.41     Clear
17:00 Legend Double Dagger 18.5 7.7 49 26 6 64.4 97.41     LegendNANA
18:00 Legend Double Dagger 14.8 7.2 60 29 9 64.4 97.46     LegendNANA
19:00 Legend Double Dagger 14.5 7.1 61 36 2 64.4 97.54     Clear
20:00 Legend Double Dagger 14.1 7.7 65 36 1 64.4 97.60     LegendNANA
21:00 Legend Double Dagger 10.9 4.8 66 36 1 64.4 97.65     LegendNANA
22:00 Legend Double Dagger 11.0 5.2 67 36 3 64.4 97.69     Clear
23:00 Legend Double Dagger 10.3 4.9 69 18 4 64.4 97.71     LegendNANA

Notes on Data Quality.

Legend

  • E = Estimated
  • M = Missing
  • NA = Not Available
  • ‡ = Partner data that is not subject to review by the National Climate Archives
Date modified: